TimePST,TemperatureF,Dew PointF,Humidity,Sea Level PressureIn,VisibilityMPH,Wind Direction,Wind SpeedMPH,Gust SpeedMPH,PrecipitationIn,Events,Conditions,WindDirDegrees,DateUTC
12:51 AM,46.0,41.0,83,30.14,10.0,Calm,Calm,-,N/A,,Clear,0,2012-12-10 08:51:00
1:51 AM,44.1,41.0,89,30.14,10.0,Calm,Calm,-,N/A,,Clear,0,2012-12-10 09:51:00
2:51 AM,44.1,41.0,89,30.14,10.0,South,3.5,-,N/A,,Clear,170,2012-12-10 10:51:00
3:51 AM,43.0,39.9,89,30.14,10.0,SSE,3.5,-,N/A,,Clear,160,2012-12-10 11:51:00
4:51 AM,39.9,37.9,93,30.13,10.0,South,3.5,-,N/A,,Clear,180,2012-12-10 12:51:00
5:51 AM,42.1,39.0,89,30.15,10.0,ESE,3.5,-,N/A,,Clear,120,2012-12-10 13:51:00
6:51 AM,43.0,39.0,86,30.17,10.0,Calm,Calm,-,N/A,,Clear,0,2012-12-10 14:51:00
7:51 AM,44.1,39.9,85,30.17,10.0,Calm,Calm,-,N/A,,Clear,0,2012-12-10 15:51:00
8:51 AM,54.0,44.1,69,30.17,10.0,Calm,Calm,-,N/A,,Clear,0,2012-12-10 16:51:00
9:51 AM,60.1,41.0,49,30.18,10.0,East,3.5,-,N/A,,Clear,80,2012-12-10 17:51:00
10:51 AM,64.0,39.9,41,30.18,10.0,Calm,Calm,-,N/A,,Clear,0,2012-12-10 18:51:00
11:51 AM,69.1,37.9,32,30.15,10.0,Calm,Calm,-,N/A,,Clear,0,2012-12-10 19:51:00
12:51 PM,71.1,37.0,29,30.12,10.0,SW,4.6,-,N/A,,Clear,230,2012-12-10 20:51:00
1:51 PM,72.0,36.0,27,30.09,10.0,NW,5.8,-,N/A,,Clear,310,2012-12-10 21:51:00
2:51 PM,70.0,41.0,35,30.08,10.0,NW,6.9,-,N/A,,Clear,310,2012-12-10 22:51:00
3:51 PM,66.9,46.0,47,30.08,10.0,NW,6.9,-,N/A,,Clear,320,2012-12-10 23:51:00
4:51 PM,57.0,48.0,72,30.10,10.0,NW,4.6,-,N/A,,Clear,310,2012-12-11 00:51:00
5:51 PM,55.0,48.9,80,30.09,10.0,Calm,Calm,-,N/A,,Clear,0,2012-12-11 01:51:00
6:51 PM,53.1,46.9,80,30.10,10.0,SE,3.5,-,N/A,,Clear,130,2012-12-11 02:51:00
7:51 PM,51.1,45.0,80,30.10,10.0,Calm,Calm,-,N/A,,Clear,0,2012-12-11 03:51:00
8:51 PM,48.9,43.0,80,30.10,10.0,Calm,Calm,-,N/A,,Clear,0,2012-12-11 04:51:00
9:51 PM,46.9,42.1,83,30.10,10.0,ESE,4.6,-,N/A,,Clear,110,2012-12-11 05:51:00
10:51 PM,46.9,42.1,83,30.09,10.0,ESE,3.5,-,N/A,,Clear,110,2012-12-11 06:51:00
11:51 PM,46.0,41.0,83,30.09,10.0,Calm,Calm,-,N/A,,Clear,0,2012-12-11 07:51:00